Year,Month,Day,Hour,Minute,Value (Times are PST for temperature in C)
2015,06,28,00,00,22.30
2015,06,28,00,01,22.30
2015,06,28,00,02,22.30
2015,06,28,00,03,22.30
2015,06,28,00,04,22.30
2015,06,28,00,05,22.20
2015,06,28,00,06,22.20
2015,06,28,00,07,22.20
2015,06,28,00,08,22.20
2015,06,28,00,09,22.10
2015,06,28,00,10,22.10
2015,06,28,00,11,22.00
2015,06,28,00,12,22.00
2015,06,28,00,13,21.90
2015,06,28,00,14,21.90
2015,06,28,00,15,21.80
2015,06,28,00,16,21.80
2015,06,28,00,17,21.80
2015,06,28,00,18,21.80
2015,06,28,00,19,21.80
2015,06,28,00,20,21.80
2015,06,28,00,21,21.80
2015,06,28,00,22,21.80
2015,06,28,00,23,21.70
2015,06,28,00,24,21.70
2015,06,28,00,25,21.70
2015,06,28,00,26,21.70
2015,06,28,00,27,21.60
2015,06,28,00,28,21.60
2015,06,28,00,29,21.60
2015,06,28,00,30,21.50
2015,06,28,00,31,21.50
2015,06,28,00,32,21.40
2015,06,28,00,33,21.40
2015,06,28,00,34,21.30
2015,06,28,00,35,21.40
2015,06,28,00,36,21.40
2015,06,28,00,37,21.40
2015,06,28,00,38,21.40
2015,06,28,00,39,21.40
2015,06,28,00,40,21.50
2015,06,28,00,41,21.50
2015,06,28,00,42,21.50
2015,06,28,00,43,21.50
2015,06,28,00,44,21.50
2015,06,28,00,45,21.50
2015,06,28,00,46,21.50
2015,06,28,00,47,21.40
2015,06,28,00,48,21.40
2015,06,28,00,49,21.40
2015,06,28,00,50,21.30
2015,06,28,00,51,21.30
2015,06,28,00,52,21.30
2015,06,28,00,53,21.30
2015,06,28,00,54,21.20
2015,06,28,00,55,21.20
2015,06,28,00,56,21.20
2015,06,28,00,57,21.20
2015,06,28,00,58,21.20
2015,06,28,00,59,21.20
2015,06,28,01,00,21.20
2015,06,28,01,01,21.20
2015,06,28,01,02,21.20
2015,06,28,01,03,21.20
2015,06,28,01,04,21.30
2015,06,28,01,05,21.30
2015,06,28,01,06,21.30
2015,06,28,01,07,21.30
2015,06,28,01,08,21.30
2015,06,28,01,09,21.30
2015,06,28,01,10,21.30
2015,06,28,01,11,21.20
2015,06,28,01,12,21.20
2015,06,28,01,13,21.20
2015,06,28,01,14,21.20
2015,06,28,01,15,21.20
2015,06,28,01,16,21.10
2015,06,28,01,17,21.10
2015,06,28,01,18,21.00
2015,06,28,01,19,21.00
2015,06,28,01,20,21.00
2015,06,28,01,21,20.90
2015,06,28,01,22,20.90
2015,06,28,01,23,20.90
2015,06,28,01,24,20.90
2015,06,28,01,25,20.90
2015,06,28,01,26,20.80
2015,06,28,01,27,20.80
2015,06,28,01,28,20.80
2015,06,28,01,29,20.80
2015,06,28,01,30,20.80
2015,06,28,01,31,20.80
2015,06,28,01,32,20.70
2015,06,28,01,33,20.70
2015,06,28,01,34,20.70
2015,06,28,01,35,20.70
2015,06,28,01,36,20.70
2015,06,28,01,37,20.70
2015,06,28,01,38,20.70
2015,06,28,01,39,20.70
2015,06,28,01,40,20.70
2015,06,28,01,41,20.70
2015,06,28,01,42,20.70
2015,06,28,01,43,20.70
2015,06,28,01,44,20.70
2015,06,28,01,45,20.70
2015,06,28,01,46,20.70
2015,06,28,01,47,20.70
2015,06,28,01,48,20.70
2015,06,28,01,49,20.70
2015,06,28,01,50,20.70
2015,06,28,01,51,20.80
2015,06,28,01,52,20.70
2015,06,28,01,53,20.70
2015,06,28,01,54,20.70
2015,06,28,01,55,20.70
2015,06,28,01,56,20.70
2015,06,28,01,57,20.70
2015,06,28,01,58,20.70
2015,06,28,01,59,20.70
2015,06,28,02,00,20.70
2015,06,28,02,01,20.70
2015,06,28,02,02,20.60
2015,06,28,02,03,20.60
2015,06,28,02,04,20.60
2015,06,28,02,05,20.50
2015,06,28,02,06,20.50
2015,06,28,02,07,20.40
2015,06,28,02,08,20.40
2015,06,28,02,09,20.40
2015,06,28,02,10,20.40
2015,06,28,02,11,20.40
2015,06,28,02,12,20.40
2015,06,28,02,13,20.40
2015,06,28,02,14,20.40
2015,06,28,02,15,20.30
2015,06,28,02,16,20.30
2015,06,28,02,17,20.30
2015,06,28,02,18,20.30
2015,06,28,02,19,20.20
2015,06,28,02,20,20.20
2015,06,28,02,21,20.20
2015,06,28,02,22,20.20
2015,06,28,02,23,20.10
2015,06,28,02,24,20.10
2015,06,28,02,25,20.10
2015,06,28,02,26,20.10
2015,06,28,02,27,20.00
2015,06,28,02,28,20.00
2015,06,28,02,29,19.90
2015,06,28,02,30,19.90
2015,06,28,02,31,19.90
2015,06,28,02,32,19.90
2015,06,28,02,33,19.80
2015,06,28,02,34,19.80
2015,06,28,02,35,19.80
2015,06,28,02,36,19.80
2015,06,28,02,37,19.90
2015,06,28,02,38,19.90
2015,06,28,02,39,20.00
2015,06,28,02,40,20.00
2015,06,28,02,41,20.00
2015,06,28,02,42,20.10
2015,06,28,02,43,20.10
2015,06,28,02,44,20.20
2015,06,28,02,45,20.20
2015,06,28,02,46,20.20
2015,06,28,02,47,20.30
2015,06,28,02,48,20.30
2015,06,28,02,49,20.30
2015,06,28,02,50,20.30
2015,06,28,02,51,20.30
2015,06,28,02,52,20.30
2015,06,28,02,53,20.30
2015,06,28,02,54,20.40
2015,06,28,02,55,20.40
2015,06,28,02,56,20.50
2015,06,28,02,57,20.60
2015,06,28,02,58,20.70
2015,06,28,02,59,20.70
2015,06,28,03,00,20.80
2015,06,28,03,01,20.80
2015,06,28,03,02,20.80
2015,06,28,03,03,20.90
2015,06,28,03,04,20.90
2015,06,28,03,05,21.00
2015,06,28,03,06,21.00
2015,06,28,03,07,20.90
2015,06,28,03,08,20.90
2015,06,28,03,09,20.90
2015,06,28,03,10,20.90
2015,06,28,03,11,20.90
2015,06,28,03,12,20.80
2015,06,28,03,13,20.80
2015,06,28,03,14,20.70
2015,06,28,03,15,20.70
2015,06,28,03,16,20.70
2015,06,28,03,17,20.70
2015,06,28,03,18,20.60
2015,06,28,03,19,20.60
2015,06,28,03,20,20.50
2015,06,28,03,21,20.50
2015,06,28,03,22,20.40
2015,06,28,03,23,20.40
2015,06,28,03,24,20.30
2015,06,28,03,25,20.30
2015,06,28,03,26,20.30
2015,06,28,03,27,20.20
2015,06,28,03,28,20.20
2015,06,28,03,29,20.10
2015,06,28,03,30,20.00
2015,06,28,03,31,20.00
2015,06,28,03,32,19.90
2015,06,28,03,33,19.90
2015,06,28,03,34,19.80
2015,06,28,03,35,19.80
2015,06,28,03,36,19.80
2015,06,28,03,37,19.80
2015,06,28,03,38,19.80
2015,06,28,03,39,19.80
2015,06,28,03,40,19.80
2015,06,28,03,41,19.80
2015,06,28,03,42,19.80
2015,06,28,03,43,19.80
2015,06,28,03,44,19.80
2015,06,28,03,45,19.80
2015,06,28,03,46,19.80
2015,06,28,03,47,19.70
2015,06,28,03,48,19.70
2015,06,28,03,49,19.70
2015,06,28,03,50,19.70
2015,06,28,03,51,19.60
2015,06,28,03,52,19.60
2015,06,28,03,53,19.60
2015,06,28,03,54,19.60
2015,06,28,03,55,19.50
2015,06,28,03,56,19.50
2015,06,28,03,57,19.40
2015,06,28,03,58,19.40
2015,06,28,03,59,19.40
2015,06,28,04,00,19.30
2015,06,28,04,01,19.30
2015,06,28,04,02,19.30
2015,06,28,04,03,19.30
2015,06,28,04,04,19.20
2015,06,28,04,05,19.20
2015,06,28,04,06,19.20
2015,06,28,04,07,19.20
2015,06,28,04,08,19.20
2015,06,28,04,09,19.10
2015,06,28,04,10,19.10
2015,06,28,04,11,19.10
2015,06,28,04,12,19.10
2015,06,28,04,13,19.00
2015,06,28,04,14,19.00
2015,06,28,04,15,18.90
2015,06,28,04,16,18.90
2015,06,28,04,17,18.90
2015,06,28,04,18,18.90
2015,06,28,04,19,18.80
2015,06,28,04,20,18.80
2015,06,28,04,21,18.80
2015,06,28,04,22,18.80
2015,06,28,04,23,18.70
2015,06,28,04,24,18.70
2015,06,28,04,25,18.70
2015,06,28,04,26,18.70
2015,06,28,04,27,18.80
2015,06,28,04,28,18.80
2015,06,28,04,29,18.80
2015,06,28,04,30,18.80
2015,06,28,04,31,18.80
2015,06,28,04,32,18.80
2015,06,28,04,33,18.80
2015,06,28,04,34,18.80
2015,06,28,04,35,18.80
2015,06,28,04,36,18.80
2015,06,28,04,37,18.70
2015,06,28,04,38,18.70
2015,06,28,04,39,18.70
2015,06,28,04,40,18.70
2015,06,28,04,41,18.70
2015,06,28,04,42,18.70
2015,06,28,04,43,18.60
2015,06,28,04,44,18.60
2015,06,28,04,45,18.60
2015,06,28,04,46,18.60
2015,06,28,04,47,18.60
2015,06,28,04,48,18.60
2015,06,28,04,49,18.60
2015,06,28,04,50,18.50
2015,06,28,04,51,18.50
2015,06,28,04,52,18.50
2015,06,28,04,53,18.40
2015,06,28,04,54,18.40
2015,06,28,04,55,18.40
2015,06,28,04,56,18.40
2015,06,28,04,57,18.40
2015,06,28,04,58,18.40
2015,06,28,04,59,18.40
2015,06,28,05,00,18.30
2015,06,28,05,01,18.30
2015,06,28,05,02,18.30
2015,06,28,05,03,18.30
2015,06,28,05,04,18.30
2015,06,28,05,05,18.30
2015,06,28,05,06,18.30
2015,06,28,05,07,18.30
2015,06,28,05,08,18.30
2015,06,28,05,09,18.30
2015,06,28,05,10,18.30
2015,06,28,05,11,18.30
2015,06,28,05,12,18.30
2015,06,28,05,13,18.30
2015,06,28,05,14,18.30
2015,06,28,05,15,18.30
2015,06,28,05,16,18.30
2015,06,28,05,17,18.30
2015,06,28,05,18,18.30
2015,06,28,05,19,18.30
2015,06,28,05,20,18.30
2015,06,28,05,21,18.30
2015,06,28,05,22,18.30
2015,06,28,05,23,18.30
2015,06,28,05,24,18.20
2015,06,28,05,25,18.20
2015,06,28,05,26,18.20
2015,06,28,05,27,18.20
2015,06,28,05,28,18.20
2015,06,28,05,29,18.20
2015,06,28,05,30,18.20
2015,06,28,05,31,18.20
2015,06,28,05,32,18.20
2015,06,28,05,33,18.20
2015,06,28,05,34,18.20
2015,06,28,05,35,18.20
2015,06,28,05,36,18.20
2015,06,28,05,37,18.20
2015,06,28,05,38,18.20
2015,06,28,05,39,18.20
2015,06,28,05,40,18.20
2015,06,28,05,41,18.20
2015,06,28,05,42,18.20
2015,06,28,05,43,18.20
2015,06,28,05,44,18.20
2015,06,28,05,45,18.20
2015,06,28,05,46,18.20
2015,06,28,05,47,18.20
2015,06,28,05,48,18.20
2015,06,28,05,49,18.30
2015,06,28,05,50,18.30
2015,06,28,05,51,18.30
2015,06,28,05,52,18.30
2015,06,28,05,53,18.30
2015,06,28,05,54,18.30
2015,06,28,05,55,18.30
2015,06,28,05,56,18.30
2015,06,28,05,57,18.40
2015,06,28,05,58,18.40
2015,06,28,05,59,18.40
2015,06,28,06,00,18.40
2015,06,28,06,01,18.50
2015,06,28,06,02,18.50
2015,06,28,06,03,18.60
2015,06,28,06,04,18.60
2015,06,28,06,05,18.60
2015,06,28,06,06,18.60
2015,06,28,06,07,18.60
2015,06,28,06,08,18.70
2015,06,28,06,09,18.70
2015,06,28,06,10,18.70
2015,06,28,06,11,18.70
2015,06,28,06,12,18.70
2015,06,28,06,13,18.80
2015,06,28,06,14,18.80
2015,06,28,06,15,18.90
2015,06,28,06,16,18.90
2015,06,28,06,17,18.90
2015,06,28,06,18,19.00
2015,06,28,06,19,19.10
2015,06,28,06,20,19.10
2015,06,28,06,21,19.20
2015,06,28,06,22,19.20
2015,06,28,06,23,19.30
2015,06,28,06,24,19.30
2015,06,28,06,25,19.30
2015,06,28,06,26,19.40
2015,06,28,06,27,19.40
2015,06,28,06,28,19.40
2015,06,28,06,29,19.40
2015,06,28,06,30,19.50
2015,06,28,06,31,19.50
2015,06,28,06,32,19.50
2015,06,28,06,33,19.60
2015,06,28,06,34,19.60
2015,06,28,06,35,19.60
2015,06,28,06,36,19.60
2015,06,28,06,37,19.50
2015,06,28,06,38,19.50
2015,06,28,06,39,19.40
2015,06,28,06,40,19.40
2015,06,28,06,41,19.40
2015,06,28,06,42,19.40
2015,06,28,06,43,19.40
2015,06,28,06,44,19.40
2015,06,28,06,45,19.50
2015,06,28,06,46,19.50
2015,06,28,06,47,19.60
2015,06,28,06,48,19.60
2015,06,28,06,49,19.60
2015,06,28,06,50,19.70
2015,06,28,06,51,19.70
2015,06,28,06,52,19.70
2015,06,28,06,53,19.70
2015,06,28,06,54,19.70
2015,06,28,06,55,19.70
2015,06,28,06,56,19.70
2015,06,28,06,57,19.80
2015,06,28,06,58,19.80
2015,06,28,06,59,19.80
2015,06,28,07,00,19.80
2015,06,28,07,01,19.80
2015,06,28,07,02,19.80
2015,06,28,07,03,19.90
2015,06,28,07,04,19.90
2015,06,28,07,05,19.90
2015,06,28,07,06,19.90
2015,06,28,07,07,19.90
2015,06,28,07,08,19.90
2015,06,28,07,09,19.90
2015,06,28,07,10,19.90
2015,06,28,07,11,19.90
2015,06,28,07,12,19.90
2015,06,28,07,13,19.90
2015,06,28,07,14,19.90
2015,06,28,07,15,19.90
2015,06,28,07,16,20.00
2015,06,28,07,17,20.00
2015,06,28,07,18,20.00
2015,06,28,07,19,20.00
2015,06,28,07,20,20.10
2015,06,28,07,21,20.10
2015,06,28,07,22,20.10
2015,06,28,07,23,20.10
2015,06,28,07,24,20.10
2015,06,28,07,25,20.20
2015,06,28,07,26,20.20
2015,06,28,07,27,20.20
2015,06,28,07,28,20.30
2015,06,28,07,29,20.30
2015,06,28,07,30,20.40
2015,06,28,07,31,20.40
2015,06,28,07,32,20.50
2015,06,28,07,33,20.50
2015,06,28,07,34,20.50
2015,06,28,07,35,20.60
2015,06,28,07,36,20.60
2015,06,28,07,37,20.60
2015,06,28,07,38,20.70
2015,06,28,07,39,20.70
2015,06,28,07,40,20.80
2015,06,28,07,41,20.80
2015,06,28,07,42,20.90
2015,06,28,07,43,20.90
2015,06,28,07,44,21.00
2015,06,28,07,45,21.00
2015,06,28,07,46,21.00
2015,06,28,07,47,21.10
2015,06,28,07,48,21.10
2015,06,28,07,49,21.10
2015,06,28,07,50,21.10
2015,06,28,07,51,21.10
2015,06,28,07,52,21.20
2015,06,28,07,53,21.20
2015,06,28,07,54,21.30
2015,06,28,07,55,21.30
2015,06,28,07,56,21.30
2015,06,28,07,57,21.40
2015,06,28,07,58,21.40
2015,06,28,07,59,21.50
2015,06,28,08,00,21.50
2015,06,28,08,01,21.60
2015,06,28,08,02,21.60
2015,06,28,08,03,21.70
2015,06,28,08,04,21.80
2015,06,28,08,05,21.80
2015,06,28,08,06,21.80
2015,06,28,08,07,21.90
2015,06,28,08,08,21.90
2015,06,28,08,09,22.00
2015,06,28,08,10,22.00
2015,06,28,08,11,22.10
2015,06,28,08,12,22.20
2015,06,28,08,13,22.30
2015,06,28,08,14,22.40
2015,06,28,08,15,22.50
2015,06,28,08,16,22.60
2015,06,28,08,17,22.70
2015,06,28,08,18,22.80
2015,06,28,08,19,22.90
2015,06,28,08,20,23.00
2015,06,28,08,21,23.10
2015,06,28,08,22,23.10
2015,06,28,08,23,23.20
2015,06,28,08,24,23.20
2015,06,28,08,25,23.30
2015,06,28,08,26,23.30
2015,06,28,08,27,23.40
2015,06,28,08,28,23.40
2015,06,28,08,29,23.50
2015,06,28,08,30,23.50
2015,06,28,08,31,23.60
2015,06,28,08,32,23.60
2015,06,28,08,33,23.70
2015,06,28,08,34,23.80
2015,06,28,08,35,23.90
2015,06,28,08,36,23.90
2015,06,28,08,37,24.10
2015,06,28,08,38,24.10
2015,06,28,08,39,24.20
2015,06,28,08,40,24.30
2015,06,28,08,41,24.50
2015,06,28,08,42,24.60
2015,06,28,08,43,24.70
2015,06,28,08,44,24.80
2015,06,28,08,45,24.90
2015,06,28,08,46,25.00
2015,06,28,08,47,25.10
2015,06,28,08,48,25.20
2015,06,28,08,49,25.30
2015,06,28,08,50,25.30
2015,06,28,08,51,25.30
2015,06,28,08,52,25.20
2015,06,28,08,53,24.80
2015,06,28,08,54,24.60
2015,06,28,08,55,24.40
2015,06,28,08,56,24.40
2015,06,28,08,57,24.40
2015,06,28,08,58,24.30
2015,06,28,08,59,24.30
2015,06,28,09,00,24.40
2015,06,28,09,01,24.50
2015,06,28,09,02,24.60
2015,06,28,09,03,24.70
2015,06,28,09,04,24.80
2015,06,28,09,05,24.90
2015,06,28,09,06,24.90
2015,06,28,09,07,24.80
2015,06,28,09,08,24.60
2015,06,28,09,09,24.60
2015,06,28,09,10,24.60
2015,06,28,09,11,24.60
2015,06,28,09,12,24.60
2015,06,28,09,13,24.60
2015,06,28,09,14,24.60
2015,06,28,09,15,24.70
2015,06,28,09,16,24.80
2015,06,28,09,17,24.80
2015,06,28,09,18,24.70
2015,06,28,09,19,24.60
2015,06,28,09,20,24.50
2015,06,28,09,21,24.40
2015,06,28,09,22,24.40
2015,06,28,09,23,24.30
2015,06,28,09,24,24.30
2015,06,28,09,25,24.30
2015,06,28,09,26,24.30
2015,06,28,09,27,24.30
2015,06,28,09,28,24.30
2015,06,28,09,29,24.30
2015,06,28,09,30,24.20
2015,06,28,09,31,24.20
2015,06,28,09,32,24.30
2015,06,28,09,33,24.30
2015,06,28,09,34,24.40
2015,06,28,09,35,24.50
2015,06,28,09,36,24.60
2015,06,28,09,37,24.70
2015,06,28,09,38,24.80
2015,06,28,09,39,24.80
2015,06,28,09,40,24.90
2015,06,28,09,41,24.90
2015,06,28,09,42,25.00
2015,06,28,09,43,25.10
2015,06,28,09,44,25.20
2015,06,28,09,45,25.30
2015,06,28,09,46,25.40
2015,06,28,09,47,25.60
2015,06,28,09,48,25.60
2015,06,28,09,49,25.70
2015,06,28,09,50,25.70
2015,06,28,09,51,25.70
2015,06,28,09,52,25.70
2015,06,28,09,53,25.70
2015,06,28,09,54,25.80
2015,06,28,09,55,25.80
2015,06,28,09,56,25.90
2015,06,28,09,57,25.90
2015,06,28,09,58,25.90
2015,06,28,09,59,25.90
2015,06,28,10,00,25.90
2015,06,28,10,01,25.60
2015,06,28,10,02,25.50
2015,06,28,10,03,25.40
2015,06,28,10,04,25.30
2015,06,28,10,05,25.30
2015,06,28,10,06,25.30
2015,06,28,10,07,25.30
2015,06,28,10,08,25.40
2015,06,28,10,09,25.40
2015,06,28,10,10,25.40
2015,06,28,10,11,25.40
2015,06,28,10,12,25.40
2015,06,28,10,13,25.40
2015,06,28,10,14,25.40
2015,06,28,10,15,25.30
2015,06,28,10,16,25.10
2015,06,28,10,17,25.10
2015,06,28,10,18,25.10
2015,06,28,10,19,25.10
2015,06,28,10,20,25.10
2015,06,28,10,21,25.10
2015,06,28,10,22,25.10
2015,06,28,10,23,25.10
2015,06,28,10,24,25.00
2015,06,28,10,25,25.00
2015,06,28,10,26,25.10
2015,06,28,10,27,25.10
2015,06,28,10,28,25.20
2015,06,28,10,29,25.20
2015,06,28,10,30,25.30
2015,06,28,10,31,25.30
2015,06,28,10,32,25.30
2015,06,28,10,33,25.20
2015,06,28,10,34,25.10
2015,06,28,10,35,25.10
2015,06,28,10,36,25.10
2015,06,28,10,37,25.10
2015,06,28,10,38,25.00
2015,06,28,10,39,24.90
2015,06,28,10,40,24.80
2015,06,28,10,41,24.60
2015,06,28,10,42,24.50
2015,06,28,10,43,24.40
2015,06,28,10,44,24.20
2015,06,28,10,45,24.20
2015,06,28,10,46,24.20
2015,06,28,10,47,24.10
2015,06,28,10,48,24.10
2015,06,28,10,49,24.00
2015,06,28,10,50,24.00
2015,06,28,10,51,24.00
2015,06,28,10,52,24.00
2015,06,28,10,53,23.90
2015,06,28,10,54,23.90
2015,06,28,10,55,23.80
2015,06,28,10,56,23.80
2015,06,28,10,57,23.90
2015,06,28,10,58,24.00
2015,06,28,10,59,24.00
2015,06,28,11,00,24.10
2015,06,28,11,01,24.10
2015,06,28,11,02,24.10
2015,06,28,11,03,24.00
2015,06,28,11,04,23.90
2015,06,28,11,05,23.80
2015,06,28,11,06,23.80
2015,06,28,11,07,23.80
2015,06,28,11,08,23.80
2015,06,28,11,09,23.70
2015,06,28,11,10,23.70
2015,06,28,11,11,23.60
2015,06,28,11,12,23.50
2015,06,28,11,13,23.50
2015,06,28,11,14,23.50
2015,06,28,11,15,23.40
2015,06,28,11,16,23.50
2015,06,28,11,17,23.50
2015,06,28,11,18,23.40
2015,06,28,11,19,23.50
2015,06,28,11,20,23.50
2015,06,28,11,21,23.50
2015,06,28,11,22,23.60
2015,06,28,11,23,23.60
2015,06,28,11,24,23.70
2015,06,28,11,25,23.70
2015,06,28,11,26,23.70
2015,06,28,11,27,23.70
2015,06,28,11,28,23.70
2015,06,28,11,29,23.70
2015,06,28,11,30,23.80
2015,06,28,11,31,23.80
2015,06,28,11,32,23.80
2015,06,28,11,33,23.90
2015,06,28,11,34,23.90
2015,06,28,11,35,23.90
2015,06,28,11,36,23.90
2015,06,28,11,37,23.90
2015,06,28,11,38,24.00
2015,06,28,11,39,24.00
2015,06,28,11,40,24.10
2015,06,28,11,41,24.10
2015,06,28,11,42,24.20
2015,06,28,11,43,24.20
2015,06,28,11,44,24.20
2015,06,28,11,45,24.20
2015,06,28,11,46,24.20
2015,06,28,11,47,24.30
2015,06,28,11,48,24.30
2015,06,28,11,49,24.20
2015,06,28,11,50,24.20
2015,06,28,11,51,24.20
2015,06,28,11,52,24.20
2015,06,28,11,53,24.20
2015,06,28,11,54,24.20
2015,06,28,11,55,24.20
2015,06,28,11,56,24.20
2015,06,28,11,57,24.20
2015,06,28,11,58,24.20
2015,06,28,11,59,24.20
2015,06,28,12,00,24.20
2015,06,28,12,01,24.20
2015,06,28,12,02,24.20
2015,06,28,12,03,24.20
2015,06,28,12,04,24.20
2015,06,28,12,05,24.30
2015,06,28,12,06,24.30
2015,06,28,12,07,24.30
2015,06,28,12,08,24.40
2015,06,28,12,09,24.50
2015,06,28,12,10,24.50
2015,06,28,12,11,24.60
2015,06,28,12,12,24.60
2015,06,28,12,13,24.60
2015,06,28,12,14,24.60
2015,06,28,12,15,24.60
2015,06,28,12,16,24.70
2015,06,28,12,17,24.60
2015,06,28,12,18,24.60
2015,06,28,12,19,24.60
2015,06,28,12,20,24.60
2015,06,28,12,21,24.50
2015,06,28,12,22,24.50
2015,06,28,12,23,24.50
2015,06,28,12,24,24.50
2015,06,28,12,25,24.50
2015,06,28,12,26,24.50
2015,06,28,12,27,24.50
2015,06,28,12,28,24.50
2015,06,28,12,29,24.50
2015,06,28,12,30,24.50
2015,06,28,12,31,24.50
2015,06,28,12,32,24.50
2015,06,28,12,33,24.50
2015,06,28,12,34,24.50
2015,06,28,12,35,24.60
2015,06,28,12,36,24.60
2015,06,28,12,37,24.70
2015,06,28,12,38,24.80
2015,06,28,12,39,24.90
2015,06,28,12,40,24.90
2015,06,28,12,41,24.90
2015,06,28,12,42,24.90
2015,06,28,12,43,24.90
2015,06,28,12,44,24.90
2015,06,28,12,45,24.90
2015,06,28,12,46,24.90
2015,06,28,12,47,24.90
2015,06,28,12,48,24.90
2015,06,28,12,49,24.90
2015,06,28,12,50,24.80
2015,06,28,12,51,24.70
2015,06,28,12,52,24.60
2015,06,28,12,53,24.50
2015,06,28,12,54,24.40
2015,06,28,12,55,24.30
2015,06,28,12,56,24.30
2015,06,28,12,57,24.30
2015,06,28,12,58,24.30
2015,06,28,12,59,24.30
2015,06,28,13,00,24.40
2015,06,28,13,01,24.40
2015,06,28,13,02,24.40
2015,06,28,13,03,24.40
2015,06,28,13,04,24.40
2015,06,28,13,05,24.40
2015,06,28,13,06,24.50
2015,06,28,13,07,24.50
2015,06,28,13,08,24.50
2015,06,28,13,09,24.50
2015,06,28,13,10,24.50
2015,06,28,13,11,24.40
2015,06,28,13,12,24.40
2015,06,28,13,13,24.30
2015,06,28,13,14,24.30
2015,06,28,13,15,24.30
2015,06,28,13,16,24.30
2015,06,28,13,17,24.40
2015,06,28,13,18,24.40
2015,06,28,13,19,24.30
2015,06,28,13,20,24.30
2015,06,28,13,21,24.30
2015,06,28,13,22,24.30
2015,06,28,13,23,24.20
2015,06,28,13,24,24.20
2015,06,28,13,25,24.20
2015,06,28,13,26,24.10
2015,06,28,13,27,24.10
2015,06,28,13,28,24.10
2015,06,28,13,29,24.00
2015,06,28,13,30,24.00
2015,06,28,13,31,23.90
2015,06,28,13,32,23.90
2015,06,28,13,33,24.00
2015,06,28,13,34,24.00
2015,06,28,13,35,24.10
2015,06,28,13,36,24.20
2015,06,28,13,37,24.20
2015,06,28,13,38,24.30
2015,06,28,13,39,24.30
2015,06,28,13,40,24.40
2015,06,28,13,41,24.50
2015,06,28,13,42,24.60
2015,06,28,13,43,24.70
2015,06,28,13,44,24.80
2015,06,28,13,45,24.80
2015,06,28,13,46,24.90
2015,06,28,13,47,24.90
2015,06,28,13,48,24.90
2015,06,28,13,49,25.00
2015,06,28,13,50,25.00
2015,06,28,13,51,25.00
2015,06,28,13,52,25.00
2015,06,28,13,53,24.90
2015,06,28,13,54,24.90
2015,06,28,13,55,24.90
2015,06,28,13,56,24.90
2015,06,28,13,57,25.00
2015,06,28,13,58,25.00
2015,06,28,13,59,25.00
2015,06,28,14,00,25.00
2015,06,28,14,01,25.10
2015,06,28,14,02,25.10
2015,06,28,14,03,25.00
2015,06,28,14,04,25.10
2015,06,28,14,05,25.10
2015,06,28,14,06,25.10
2015,06,28,14,07,25.10
2015,06,28,14,08,25.10
2015,06,28,14,09,25.20
2015,06,28,14,10,25.20
2015,06,28,14,11,25.20
2015,06,28,14,12,25.20
2015,06,28,14,13,25.30
2015,06,28,14,14,25.30
2015,06,28,14,15,25.20
2015,06,28,14,16,25.20
2015,06,28,14,17,25.20
2015,06,28,14,18,25.10
2015,06,28,14,19,25.10
2015,06,28,14,20,25.10
2015,06,28,14,21,25.00
2015,06,28,14,22,25.00
2015,06,28,14,23,24.90
2015,06,28,14,24,24.90
2015,06,28,14,25,24.90
2015,06,28,14,26,24.80
2015,06,28,14,27,24.80
2015,06,28,14,28,24.70
2015,06,28,14,29,24.70
2015,06,28,14,30,24.60
2015,06,28,14,31,24.50
2015,06,28,14,32,24.50
2015,06,28,14,33,24.40
2015,06,28,14,34,24.40
2015,06,28,14,35,24.40
2015,06,28,14,36,24.30
2015,06,28,14,37,24.30
2015,06,28,14,38,24.40
2015,06,28,14,39,24.40
2015,06,28,14,40,24.40
2015,06,28,14,41,24.50
2015,06,28,14,42,24.50
2015,06,28,14,43,24.50
2015,06,28,14,44,24.60
2015,06,28,14,45,24.60
2015,06,28,14,46,24.60
2015,06,28,14,47,24.70
2015,06,28,14,48,24.70
2015,06,28,14,49,24.70
2015,06,28,14,50,24.80
2015,06,28,14,51,24.80
2015,06,28,14,52,24.80
2015,06,28,14,53,24.90
2015,06,28,14,54,24.90
2015,06,28,14,55,24.90
2015,06,28,14,56,24.90
2015,06,28,14,57,24.90
2015,06,28,14,58,24.90
2015,06,28,14,59,24.90
2015,06,28,15,00,24.90
2015,06,28,15,01,24.90
2015,06,28,15,02,24.90
2015,06,28,15,03,24.80
2015,06,28,15,04,24.80
2015,06,28,15,05,24.80
2015,06,28,15,06,24.80
2015,06,28,15,07,24.80
2015,06,28,15,08,24.70
2015,06,28,15,09,24.70
2015,06,28,15,10,24.50
2015,06,28,15,11,24.50
2015,06,28,15,12,24.30
2015,06,28,15,13,23.80
2015,06,28,15,14,23.50
2015,06,28,15,15,23.20
2015,06,28,15,16,22.90
2015,06,28,15,17,22.60
2015,06,28,15,18,22.30
2015,06,28,15,19,22.10
2015,06,28,15,20,21.90
2015,06,28,15,21,21.70
2015,06,28,15,22,21.50
2015,06,28,15,23,21.20
2015,06,28,15,24,20.90
2015,06,28,15,25,20.60
2015,06,28,15,26,20.40
2015,06,28,15,27,20.30
2015,06,28,15,28,20.10
2015,06,28,15,29,20.10
2015,06,28,15,30,20.00
2015,06,28,15,31,20.00
2015,06,28,15,32,19.90
2015,06,28,15,33,20.00
2015,06,28,15,34,20.00
2015,06,28,15,35,20.00
2015,06,28,15,36,20.10
2015,06,28,15,37,20.10
2015,06,28,15,38,20.20
2015,06,28,15,39,20.20
2015,06,28,15,40,20.30
2015,06,28,15,41,20.40
2015,06,28,15,42,20.50
2015,06,28,15,43,20.60
2015,06,28,15,44,20.70
2015,06,28,15,45,20.80
2015,06,28,15,46,20.90
2015,06,28,15,47,21.00
2015,06,28,15,48,21.10
2015,06,28,15,49,21.20
2015,06,28,15,50,21.30
2015,06,28,15,51,21.40
2015,06,28,15,52,21.50
2015,06,28,15,53,21.50
2015,06,28,15,54,21.60
2015,06,28,15,55,21.70
2015,06,28,15,56,21.70
2015,06,28,15,57,21.80
2015,06,28,15,58,21.80
2015,06,28,15,59,21.80
2015,06,28,16,00,21.80
2015,06,28,16,01,21.90
2015,06,28,16,02,21.90
2015,06,28,16,03,21.90
2015,06,28,16,04,22.00
2015,06,28,16,05,22.00
2015,06,28,16,06,22.10
2015,06,28,16,07,22.10
2015,06,28,16,08,22.10
2015,06,28,16,09,22.10
2015,06,28,16,10,22.10
2015,06,28,16,11,22.10
2015,06,28,16,12,22.10
2015,06,28,16,13,22.10
2015,06,28,16,14,22.10
2015,06,28,16,15,22.10
2015,06,28,16,16,22.10
2015,06,28,16,17,22.00
2015,06,28,16,18,22.00
2015,06,28,16,19,22.00
2015,06,28,16,20,21.90
2015,06,28,16,21,21.90
2015,06,28,16,22,21.90
2015,06,28,16,23,21.90
2015,06,28,16,24,21.90
2015,06,28,16,25,22.00
2015,06,28,16,26,22.00
2015,06,28,16,27,22.00
2015,06,28,16,28,22.00
2015,06,28,16,29,22.10
2015,06,28,16,30,22.10
2015,06,28,16,31,22.10
2015,06,28,16,32,22.20
2015,06,28,16,33,22.20
2015,06,28,16,34,22.20
2015,06,28,16,35,22.30
2015,06,28,16,36,22.30
2015,06,28,16,37,22.30
2015,06,28,16,38,22.30
2015,06,28,16,39,22.30
2015,06,28,16,40,22.30
2015,06,28,16,41,22.40
2015,06,28,16,42,22.40
2015,06,28,16,43,22.50
2015,06,28,16,44,22.50
2015,06,28,16,45,22.50
2015,06,28,16,46,22.50
2015,06,28,16,47,22.60
2015,06,28,16,48,22.60
2015,06,28,16,49,22.70
2015,06,28,16,50,22.70
2015,06,28,16,51,22.80
2015,06,28,16,52,22.90
2015,06,28,16,53,22.90
2015,06,28,16,54,22.90
2015,06,28,16,55,23.00
2015,06,28,16,56,23.10
2015,06,28,16,57,23.10
2015,06,28,16,58,23.20
2015,06,28,16,59,23.20
2015,06,28,17,00,23.20
2015,06,28,17,01,23.30
2015,06,28,17,02,23.30
2015,06,28,17,03,23.30
2015,06,28,17,04,23.40
2015,06,28,17,05,23.40
2015,06,28,17,06,23.40
2015,06,28,17,07,23.40
2015,06,28,17,08,23.50
2015,06,28,17,09,23.50
2015,06,28,17,10,23.60
2015,06,28,17,11,23.60
2015,06,28,17,12,23.60
2015,06,28,17,13,23.70
2015,06,28,17,14,23.70
2015,06,28,17,15,23.70
2015,06,28,17,16,23.70
2015,06,28,17,17,23.70
2015,06,28,17,18,23.70
2015,06,28,17,19,23.60